sat.trackr.live / text

‹ back to catalog

STARLINK-30714

NORAD 57939 · 2023-148E

PAYLOAD ACTIVE UNKNOWN

§ Identity

Operator
Country
US
Launch date
2023-09-25
Launch site
AFWTR
Launch vehicle
Mass (kg)
RCS (m²)

Purposes: comms

External: N2YO · Heavens-Above · Gunter

§ Orbital elements

Epoch: 2026-05-24T22:44:43.420128Z

Period
94.11 min
Inclination
53.1610°
Eccentricity
0.0001615
Mean motion
15.30180787 rev/d
Perigee alt
474.2 km
Apogee alt
476.4 km
Semi-major
6,853.4 km
B*
-3.7639e-5
RAAN
30.2713°
Arg perigee
81.3627°
Mean anomaly
278.7557°
Rev number
15,009

§ Raw data

STARLINK-307141 57939U 23148E   26144.94772477 -.00001473  00000+0 -37639-4 0  99932 57939  53.1610  30.2713 0001615  81.3627 278.7557 15.30180787150093

JSON: /api/v1/satellites/57939 · /tle

For live sub-satellite position, see the globe view (requires WebGL).

§ Visibility from observer

Set your observer location to see the next 7 days of passes ≥ 10°. The values pass through the URL so the page stays shareable.

No JS? Fill the form by hand. The geolocation button needs JavaScript.